Flag for Lebanon Weather past 2 weeks in Sidon, Lebanon

Now
66 °F

Partly sunny.


Feels Like: 66 °F
Forecast: 63 / 70 °F
Wind: 2 mph from North

Location: Beirut Airport

Current Time: Mar 29, 2015 at 2:28:00 PM

Latest Report: Mar 29, 2015 at 2:00 PM


Visibility: 5 mi

Pressure: 29.80 "Hg

Humidity: 73%

Dew point: 57 °F

Location of SidonLocation

Historic Weather in Sidon — Graph

°F

Sidon temperature yesterday

Maximum temperature yesterday: 82 °F (at 6:00 AM)
Minimum temperature yesterday: 66 °F (at 9:00 PM)
Average temperature yesterday: 72 °F

Past Weeks' High & Low Weather Summary

 TemperatureHumidityPressure
High82 °F (Mar 28, 6:00 AM)83% (Mar 19, 6:00 AM)30.21 "Hg (Mar 19, 6:00 AM)
Low54 °F (Mar 22, 4:00 AM)21% (Mar 27, 12:00 PM)29.65 "Hg (Mar 28, 5:00 AM)
Average63 °F60%30.04 "Hg
* Reported Mar 14 12:00 Noon — Mar 29 1:00 PM, Sidon, Weather by CustomWeather, © 2015

Note: Actual official high and low records may vary slightly from our data, if they occured in-between our weather recording intervals... More about our weather records

Advertising

Sidon weather history for previous 24 hours

 ConditionsComfort  
Time TempWeatherWind HumidityBarometerVisibility
1:00 PM
Sun, Mar 29
66 °FPartly sunny.8 mph78%29.80 "HgN/A
12:00 PM68 °FPartly sunny.8 mph73%29.80 "Hg5 mi
11:00 AM66 °FPartly sunny.7 mph78%29.83 "Hg5 mi
10:00 AM68 °FPartly sunny.3 mph73%29.83 "Hg5 mi
9:00 AM66 °FPartly sunny.1 mph78%29.83 "Hg5 mi
8:00 AM64 °FPartly sunny.3 mph78%29.83 "Hg5 mi
7:00 AM63 °FPassing clouds.6 mph83%29.83 "Hg5 mi
6:00 AM64 °FLight rain. Passing clouds.2 mph83%29.83 "Hg5 mi
5:00 AM64 °FPassing clouds.2 mph78%29.83 "Hg5 mi
4:00 AM64 °FPassing clouds.5 mph78%29.83 "HgN/A
3:00 AM64 °FPassing clouds.5 mph83%29.86 "HgN/A
2:00 AM64 °FThunderstorms. Passing clouds.7 mph83%29.89 "Hg5 mi
1:00 AM66 °FPassing clouds.3 mph73%29.89 "HgN/A
11:00 PM
Sat, Mar 28
68 °FPassing clouds.7 mph69%29.89 "HgN/A
10:00 PM68 °FPassing clouds.5 mph69%29.92 "HgN/A
9:00 PM66 °FClear.8 mph78%29.89 "Hg10 mi
8:00 PM68 °FPassing clouds.7 mph73%29.86 "Hg4 mi
7:00 PM70 °FPassing clouds.2 mph60%29.86 "Hg4 mi
6:00 PM70 °FRain. Passing clouds.3 mph69%29.89 "Hg4 mi
5:00 PM70 °FPartly sunny.7 mph64%29.89 "Hg4 mi
4:00 PM70 °FPartly sunny.10 mph60%29.89 "Hg4 mi
3:00 PM68 °FPartly sunny.10 mph73%29.89 "Hg5 mi
2:00 PM72 °FPartly sunny.7 mph65%29.86 "Hg4 mi
Weather by CustomWeather, © 2015

See weather overviewHow to use our weather pages